User: anonymous   Login
Location: Unspecified
(0.0000°N, 0.0000°E)
Time: 23:56:21
(UTC+00:00)
Language:

Cubesat XI-IV - Orbit

View from above orbital plane
View from above orbital plane
View from above satellite
View from above satellite

Ground track
Ground track

The orbit data is extracted from the following two-line orbital elements,

1 27848U 03031J   24176.54971227  .00000361  00000-0  18072-3 0  9994
2 27848  98.6794 183.7167 0010528 134.3311 225.8732 14.22723922 88637
Epoch (UTC): 24 June 2024 13:11:35
Eccentricity: 0.0010528
inclination: 98.6794°
perigee height: 808 km
apogee height: 824 km
right ascension of ascending node: 183.7167°
argument of perigee: 134.3311°
revolutions per day: 14.22723922
mean anomaly at epoch: 225.8732°
orbit number at epoch: 8863

The dashed part of the orbit path shows where the satellite is in the earth's shadow,  

DLR